GSLV R/B, 65054

Orbit data source: Space-Track

GSLV R/B, 65054 is space debris in SSO originally from a launch on Wed, 30 Jul 2025 UTC launched from the Sirharikota (SRI). Debris objects in space refer to the collection of defunct objects orbiting the Earth. Examples of debris include non-operational satellites, rocket bodies, and fragments generated from explosions, collisions, or faulty payload assembly.

Loading next visibility...
Identifier
65054, 2025-163B
Orbit
SSO
Country
Flag of ININ / IND
Related business
Manufacturer
ISRO
Mission
Spacecraft
Bus & Motor
CUS15, Unknown motor
Mass
2,630 kg wet, 2,630 kg dry
Launch date (UTC)
2025-07-30 (1 year ago)
Launch vehicle
Unknown
Launch site
Sirharikota (SRI)
Object type
Payload
Rocket body
Debris
Shape & HBR
Cyl, 4.6 m
Radar Cross Section
22.211 m², Large (>1 m²)

Expand to show TLE details & history
Last TLE update: 20 hours ago

TLE from 20 hours ago
0 GSLV R/B
1 65054U 25163B   26265.45102801  .00000181  00000-0  60682-4 0  9995
2 65054  98.4322  96.2314 0013004 112.1016 248.1558 14.47889564 60617
Epoch: 2026-09-22T10:49Z
TLE epoch observation values (Epoch: 2026-09-22T10:49:28.820Z)
Latitude
-0.00007°
Longitude
-67.45499°
Altitude
738.963 km
Speed
7.484 km/s
True Right ascension
06h 24m 55s
True Declination
0° 00' 00"
Sunlit
Object was in daylight at epoch
Visualization orbit readout
Latitude
Unknown
Longitude
Unknown
Altitude
Unknown
Speed
Unknown
Apparent Right ascension
Unknown
Apparent Declination
Unknown
Sunlit
N/A
Visualization observer readout
Local Sidereal Time
23:57:51
Azimuth
Unknown
Elevation
Unknown
Doppler factor
Unknown
Orbital elements
Apogee altitude
738.901 km
Perigee altitude
720.415 km
Semi-major axis
7,107.795 km
Eccentricity
0.0013
Inclination
98.4322°
RAAN
96.2314°
Arg. of periapsis
112.1016°
True anomaly
248.01757°
Mean anomaly
248.1558°
Eccentric anomaly
248.08668°
Mean motion
3.62194 °/min
Orbital period
99.39 mins
BSTAR
0.000060682
Loading maneuver chart data...
Computing Atmospheric mass density...
Loading historical data...
Loading historical data...
Loading historical data...
Loading historical data...
Loading historical data...
Loading historical data...
Loading historical data...
Other satellites on launch #163 in the year 2025 (2025-07-30 UTC)

Documentation

Showing up to 5 results
|